DateTimeUTC,F1_A11,F1_S11,BsB_S11,BsG_S11,BsR_S11,BbsB_S11,BbsG_S11,BbsR_S11,BaB_A11,BaG_A11,BaR_A11,Tu_S11,T_S11,Uu_S11,U_S11,P_S11,T1_A11
2021-09-11T10:00:00Z,00000200,21000000,,,,,,,0000.18,0000.09,0000.07,18.1,25.4,,00.0,0667.5,31.0
2021-09-11T10:01:00Z,00000200,21000000,,,,,,,0000.31,0000.18,0000.14,18.1,25.4,,00.0,0667.5,31.0
2021-09-11T10:02:00Z,00000200,21000000,,,,,,,-000.19,0000.05,-000.13,18.2,25.4,,00.0,0667.5,31.0
2021-09-11T10:03:00Z,00000200,61000000,,,,,,,0000.45,0000.13,0000.20,18.2,25.4,,00.0,0667.5,31.1
2021-09-11T10:04:00Z,00000200,41000000,0000.88,0000.70,0000.62,-000.41,0000.24,0000.07,-000.07,0000.24,0000.51,18.7,25.4,,00.0,0668.5,31.1
2021-09-11T10:05:00Z,00000200,01000000,0000.86,0000.54,0000.35,0000.11,0000.10,0000.06,0000.44,0000.50,-000.06,18.8,25.4,,00.0,0668.5,31.1
2021-09-11T10:06:00Z,00000200,01000000,0000.78,0000.68,0000.47,0000.49,0000.16,0000.43,0000.32,-000.10,0000.13,18.9,25.4,,00.0,0668.5,31.1
2021-09-11T10:07:00Z,00000200,01000000,0001.06,0000.68,0000.42,-000.70,-000.25,0000.19,0000.03,-000.10,0000.09,18.8,25.4,,00.0,0668.5,31.1
2021-09-11T10:08:00Z,00000200,01000000,0001.00,0000.65,0000.57,-000.50,-000.20,0000.58,-000.05,-000.21,-000.35,18.8,25.4,,00.0,0668.5,31.0
2021-09-11T10:09:00Z,00000200,01000000,0001.82,0000.58,0000.66,-000.07,-000.11,0000.47,0000.22,0000.60,0000.53,18.7,25.3,,00.0,0668.5,31.1
2021-09-11T10:10:00Z,00000200,01000000,0000.98,0000.85,0000.77,-000.15,-000.11,0000.40,-000.04,-000.26,-000.38,18.6,25.3,,00.0,0668.5,31.0
2021-09-11T10:11:00Z,00000200,01000000,0000.56,0000.96,0000.16,0000.04,0000.25,0000.14,0000.51,0000.76,0000.34,18.6,25.2,,00.0,0668.4,31.0
2021-09-11T10:12:00Z,00000200,01000000,0001.08,0000.55,0000.47,-000.14,0000.24,-000.03,0000.16,0000.17,0000.30,18.5,25.2,,00.0,0668.5,31.0
2021-09-11T10:13:00Z,00000200,01000000,0000.81,0000.65,0000.25,0000.75,0000.03,0000.40,0000.38,0000.06,0000.50,18.6,25.2,,00.0,0668.5,31.0
2021-09-11T10:14:00Z,00000200,01000000,0000.71,0000.41,0000.24,0000.07,0000.07,-000.00,0000.64,0000.45,0000.01,18.7,25.3,,00.0,0668.5,31.0
2021-09-11T10:15:00Z,00000200,01000000,0000.60,0000.36,0000.15,0000.29,0000.06,-000.05,0000.07,0000.34,0000.36,18.7,25.3,,00.0,0668.6,31.0
2021-09-11T10:16:00Z,00000200,01000000,0000.31,0000.29,0000.20,-000.77,0000.41,0000.13,0000.02,0000.27,0000.25,18.8,25.3,,00.0,0668.5,31.0
2021-09-11T10:17:00Z,00000200,01000000,0001.55,0000.52,0000.18,0000.40,0000.10,0000.24,0000.35,0000.32,0000.43,18.9,25.4,,00.0,0668.6,31.0
2021-09-11T10:18:00Z,00000200,01000000,0001.71,0000.51,0000.27,0000.02,0000.01,0000.18,0000.12,-000.04,-000.24,19.0,25.4,,00.0,0668.6,31.1
2021-09-11T10:19:00Z,00000200,01000000,0000.78,0000.20,0000.56,0000.19,0000.17,0000.55,0000.35,0000.18,0000.44,19.0,25.4,,00.0,0668.6,31.1
2021-09-11T10:20:00Z,00000200,01000000,0001.08,0000.52,0000.31,0000.26,0000.07,-000.06,-000.35,-000.00,-000.41,19.0,25.4,,00.0,0668.6,31.1
2021-09-11T10:21:00Z,00000200,01000000,0000.63,0000.53,0000.63,0000.46,-000.02,0000.15,0000.01,0000.31,0000.21,18.9,25.4,,00.0,0668.6,31.0
2021-09-11T10:22:00Z,00000200,01000000,0001.52,0000.61,0000.43,-000.00,0000.22,0000.35,0000.19,-000.14,-000.40,18.8,25.4,,00.0,0668.6,31.0
2021-09-11T10:23:00Z,00000200,01000000,0000.42,0000.90,0000.66,-000.33,-000.01,0000.43,0000.25,0000.02,0000.41,18.8,25.3,,00.0,0668.6,31.0
2021-09-11T10:24:00Z,00000200,01000000,0000.81,0000.44,0000.26,0000.55,0000.10,0000.49,0000.02,0000.09,0000.02,18.7,25.3,,00.0,0668.5,31.0
2021-09-11T10:25:00Z,00000200,01000000,0000.81,0000.52,0000.52,-000.17,0000.23,0000.26,-000.10,-000.40,-000.06,18.6,25.2,,00.0,0668.5,31.0
2021-09-11T10:26:00Z,00000200,01000000,0000.92,0000.48,0000.32,-000.43,0000.08,-000.02,0000.23,0000.46,0000.19,18.6,25.2,,00.0,0668.5,31.0
2021-09-11T10:27:00Z,00000200,01000000,0000.43,0000.45,0000.31,-000.11,-000.22,0000.10,0000.34,0000.55,0000.54,18.5,25.2,,00.0,0668.5,31.0
2021-09-11T10:28:00Z,00000200,01000000,0000.55,0001.14,0000.19,0000.20,0000.14,0000.03,0000.63,0000.18,0000.17,18.6,25.2,,00.0,0668.5,31.0
2021-09-11T10:29:00Z,00000200,01000000,0000.98,0000.66,0000.37,-000.16,0000.22,0000.20,0000.34,0000.33,0000.21,18.7,25.2,,00.0,0668.6,31.0
2021-09-11T10:30:00Z,00000200,01000000,0000.12,0000.40,0000.24,0000.36,0000.22,0000.02,0000.25,0000.71,0000.52,18.7,25.3,,00.0,0668.6,31.0
2021-09-11T10:31:00Z,00000200,01000000,0001.64,0000.81,0000.18,0000.46,0000.36,0000.16,0000.55,0000.37,0000.10,18.8,25.3,,00.0,0668.6,31.0
2021-09-11T10:32:00Z,00000200,01000000,0000.71,0000.60,0000.26,0000.07,0000.13,0000.31,-000.07,-000.06,0000.06,18.9,25.3,,00.0,0668.6,31.1
2021-09-11T10:33:00Z,00000200,01000000,0001.33,0000.67,0000.38,0000.35,0000.04,-000.11,0000.64,0000.58,0000.53,19.0,25.4,,00.0,0668.6,31.1
2021-09-11T10:34:00Z,00000200,01000000,0001.26,0000.79,0000.52,0000.67,0000.10,-000.03,-000.15,0000.10,0000.21,19.1,25.4,,00.0,0668.6,31.1
2021-09-11T10:35:00Z,00000200,01000000,0001.07,0000.87,0000.32,0000.08,0000.13,0000.18,0000.16,0000.08,0000.28,19.1,25.5,,00.0,0668.6,31.1
2021-09-11T10:36:00Z,00000200,01000000,0001.51,0000.55,0000.14,0000.25,0000.19,-000.01,0000.07,0000.12,-000.04,19.2,25.5,,00.0,0668.5,31.1
2021-09-11T10:37:00Z,00000200,01000000,0001.60,0000.42,0000.14,0000.74,0000.12,0000.04,0000.14,0000.11,-000.61,19.1,25.5,,00.0,0668.5,31.1
2021-09-11T10:38:00Z,00000200,01000000,0001.02,0000.76,0000.26,-000.24,0000.22,0000.05,0000.38,-000.29,0000.37,19.1,25.5,,00.0,0668.5,31.1
2021-09-11T10:39:00Z,00000200,01000000,0000.75,0000.34,0000.12,0000.15,0000.21,-000.23,-000.26,-000.01,0000.01,19.0,25.4,,00.0,0668.5,31.0
2021-09-11T10:40:00Z,00000200,01000000,0001.17,0000.67,0000.56,0000.14,-000.13,0000.07,0000.04,0000.19,-000.10,18.9,25.4,,00.0,0668.5,31.0
2021-09-11T10:41:00Z,00000200,01000000,0000.94,0000.68,0000.47,-000.25,0000.18,0000.08,0000.70,0000.04,0000.36,18.8,25.4,,00.0,0668.5,31.0
2021-09-11T10:42:00Z,00000200,01000000,0001.90,0000.42,0000.21,-000.45,-000.04,0000.24,-000.21,0000.72,0000.23,18.8,25.3,,00.0,0668.5,31.0
2021-09-11T10:43:00Z,00000200,01000000,0000.69,0001.08,0000.33,-000.12,0000.06,0000.20,0000.63,0000.35,0000.60,18.8,25.3,,00.0,0668.5,31.0
2021-09-11T10:44:00Z,00000200,01000000,0000.51,0000.48,0000.23,0000.59,0000.14,0000.18,0000.32,0000.37,0000.27,18.9,25.4,,00.0,0668.5,31.0
2021-09-11T10:45:00Z,00000200,01000000,0001.37,0000.40,0000.24,0000.38,0000.35,0000.10,0000.36,0000.18,0000.25,19.0,25.4,,00.0,0668.6,31.1
2021-09-11T10:46:00Z,00000200,01000000,0000.47,0000.41,0000.16,0000.04,0000.25,0000.03,0000.49,0000.25,0000.27,19.1,25.5,,00.0,0668.6,31.1
2021-09-11T10:47:00Z,00000200,01000000,0001.16,0000.75,0000.32,0000.54,0000.36,0000.10,-000.03,0000.30,-000.22,19.1,25.5,,00.0,0668.6,31.1
2021-09-11T10:48:00Z,00000200,01000000,0000.49,0000.56,0000.38,0000.19,-000.09,0000.03,0000.23,0000.27,0000.41,19.2,25.6,,00.0,0668.6,31.1
2021-09-11T10:49:00Z,00000200,01000000,0001.54,0000.74,0000.58,0000.40,0000.12,0000.43,0000.25,-000.07,0000.19,19.2,25.6,,00.0,0668.6,31.1
2021-09-11T10:50:00Z,00000200,01000000,0001.02,0000.45,0000.21,0000.36,0000.06,0000.07,0000.20,0000.04,-000.16,19.2,25.6,,00.0,0668.6,31.1
2021-09-11T10:51:00Z,00000200,01000000,0000.59,0000.73,0000.14,0000.28,0000.21,0000.11,-000.28,-000.45,-000.05,19.1,25.5,,00.0,0668.5,31.1
2021-09-11T10:52:00Z,00000200,01000000,0000.80,0000.45,0000.33,0000.19,0000.08,-000.28,-000.01,0000.41,-000.17,19.1,25.5,,00.0,0668.5,31.0
2021-09-11T10:53:00Z,00000200,01000000,0001.95,0000.79,0000.22,0000.21,0000.04,0000.15,-000.12,-000.39,0000.12,19.0,25.5,,00.0,0668.5,31.0
2021-09-11T10:54:00Z,00000200,01000000,0000.87,0000.76,0000.09,0000.01,0000.03,0000.28,0000.48,0000.35,0000.44,18.9,25.4,,00.0,0668.5,31.0
2021-09-11T10:55:00Z,00000200,01000000,0001.18,0000.74,0000.30,0000.24,0000.41,-000.09,0000.11,0000.30,-000.50,18.8,25.4,,00.0,0668.5,31.0
2021-09-11T10:56:00Z,00000200,01000000,0000.57,0000.68,0000.52,0000.10,-000.03,0000.40,0000.00,0000.04,0000.25,18.8,25.3,,00.0,0668.5,31.0
2021-09-11T10:57:00Z,00000200,41000000,,,,,,,0000.64,0000.55,0000.41,18.8,25.3,,00.0,0668.4,31.0
2021-09-11T10:58:00Z,00000200,61000000,,,,,,,0000.25,0000.16,0000.10,18.5,25.5,,00.0,0667.6,31.0
2021-09-11T10:59:00Z,00000200,21000000,,,,,,,0000.01,0000.01,0000.26,18.5,25.6,,00.0,0667.6,31.0
